This demonstration page uses our WeatherBlox Daily Observations layout. Learn more.

Left ArrowRight Arrow

Hourly Observations for January 16, 2022

Temp ( °F °C ) Dew Point ( °F °C ) Humidity (%) Winds ( mph kmh ) Pressure ( in mb ) Visibility ( mi km ) Precip ( " mm )
12:06 am 00:06 Cloudy with Mist and Fog 27 -2.8 26 -3.3 96 96 N 16 26 30.18 1022 4 6 0.00 0.00
12:52 am 00:52 Cloudy with Mist and Fog 27 -2.8 25 -3.9 92 92 N 10 17 30.09 1019 6 10 0.00 0.00
1:52 am 01:52 Cloudy 26 -3.3 24 -4.4 92 92 N 12 19 30.12 1020 9 14 0.00 0.00
2:14 am 02:14 Mostly Cloudy 25 -3.9 22 -5.6 88 88 N 12 19 30.17 1022 10 16 0.00 0.00
2:52 am 02:52 Cloudy 24 -4.4 21 -6.1 88 88 N 9 15 30.11 1020 9 14 0.00 0.00
3:29 am 03:29 Cloudy 24 -4.4 22 -5.6 91 91 N 12 19 30.16 1021 8 13 0.00 0.00
3:52 am 03:52 Cloudy 25 -3.9 22 -5.6 88 88 N 10 17 30.09 1019 8 13 0.00 0.00
4:52 am 04:52 Cloudy 23 -5 21 -6.1 92 92 N 10 17 30.08 1019 8 13 0.00 0.00
5:52 am 05:52 Cloudy 23 -5 21 -6.1 92 92 NNE 8 13 30.07 1018 8 13 0.00 0.00
6:52 am 06:52 Cloudy 23 -5 20 -6.7 88 88 NNW 9 15 30.06 1018 8 13 0.00 0.00
7:52 am 07:52 Cloudy with Mist and Fog 23 -5 21 -6.1 92 92 N 5 7 30.07 1018 6 10 0.00 0.00
8:52 am 08:52 Cloudy with Mist and Fog 24 -4.4 21 -6.1 88 88 WNW 6 9 30.05 1018 5 8 0.00 0.00
9:52 am 09:52 Cloudy with Mist and Fog 24 -4.4 21 -6.1 88 88 WNW 8 13 30.06 1018 5 8 0.00 0.00
10:41 am 10:41 Cloudy with Mist and Fog 24 -4.4 22 -5.6 91 91 W 7 11 30.10 1019 3 5 0.00 0.00
10:52 am 10:52 Cloudy with Mist and Fog 24 -4.4 23 -5 96 96 W 3 6 30.04 1017 3 4 0.00 0.00
11:10 am 11:10 Cloudy with Mist and Fog 23 -5 23 -5 100 100 W 3 6 30.07 1018 2 3 0.00 0.00
11:19 am 11:19 Cloudy with Mist and Fog 24 -4.4 23 -5 96 96 WSW 8 13 30.07 1018 3 4 0.00 0.00
11:37 am 11:37 Cloudy with Mist and Fog 24 -4.4 23 -5 96 96 WNW 6 9 30.06 1018 2 3 0.00 0.00
11:52 am 11:52 Cloudy with Mist and Fog 24 -4.4 22 -5.6 91 91 W 5 7 30.01 1016 3 4 0.00 0.00
12:52 pm 12:52 Cloudy with Mist and Fog 25 -3.9 24 -4.4 96 96 W 7 11 29.98 1015 3 4 0.00 0.00
1:03 pm 13:03 Cloudy with Mist and Fog 25 -3.9 23 -5 92 92 W 9 15 30.01 1016 3 5 0.00 0.00
1:52 pm 13:52 Cloudy with Mist and Fog 25 -3.9 24 -4.4 96 96 SW 9 15 29.94 1014 4 6 0.00 0.00
2:24 pm 14:24 Cloudy with Mist and Fog 26 -3.3 23 -5 88 88 WSW 9 15 29.98 1015 5 8 0.00 0.00
2:52 pm 14:52 Cloudy with Mist and Fog 26 -3.3 24 -4.4 92 92 WSW 13 20 29.93 1014 5 8 0.00 0.00
3:52 pm 15:52 Cloudy with Mist and Fog 27 -2.8 25 -3.9 92 92 WSW 7 11 29.92 1013 5 8 0.00 0.00
4:52 pm 16:52 Cloudy with Mist and Fog 28 -2.2 25 -3.9 88 88 W 10 17 29.93 1014 5 8 0.00 0.00
5:52 pm 17:52 Cloudy 27 -2.8 24 -4.4 89 89 W 20 31 29.96 1015 7 11 0.00 0.00
6:52 pm 18:52 Cloudy 26 -3.3 24 -4.4 92 92 WNW 13 20 29.98 1015 7 11 0.00 0.00
7:52 pm 19:52 Cloudy 26 -3.3 24 -4.4 92 92 WNW 10 17 30.00 1016 7 11 0.00 0.00
8:52 pm 20:52 Cloudy 28 -2.2 25 -3.9 88 88 WNW 12 19 30.01 1016 8 13 0.00 0.00
9:11 pm 21:11 Cloudy 28 -2.2 25 -3.9 88 88 WNW 12 19 30.04 1017 8 13 0.00 0.00
9:52 pm 21:52 Mostly Clear 27 -2.8 25 -3.9 92 92 WNW 8 13 30.01 1016 8 13 0.00 0.00
10:14 pm 22:14 Mostly Cloudy 28 -2.2 25 -3.9 88 88 WNW 9 15 30.04 1017 9 14 0.00 0.00
10:23 pm 22:23 Partly Cloudy 28 -2.2 25 -3.9 88 88 WNW 9 15 30.04 1017 9 14 0.00 0.00
10:52 pm 22:52 Clear 28 -2.2 25 -3.9 88 88 WNW 7 11 30.01 1016 9 14 0.00 0.00
11:52 pm 23:52 Clear 27 -2.8 25 -3.9 92 92 W 8 13 30.00 1016 9 14 0.00 0.00

Powered by AerisWeather